Total_Precipitation_Accumulation
1.69 1.57 1.03 0.59 0.54 0.40 0.31 0.28 0.29 0.33 0.37 0.49 0.53 0.45 0.51 0.45 0.38 0.36 0.34 0.33 0.38 0.48 0.61 0.79 0.97 1.18 1.37 1.57 1.68 1.70 1.64 1.66 1.68 1.61 1.44 1.23 1.00 0.88 0.72 0.60 0.50 0.44 0.41 0.39
1.44 1.14 0.59 0.42 0.47 0.43 0.33 0.32 0.32 0.32 0.35 0.45 0.48 0.44 0.43 0.41 0.35 0.34 0.38 0.34 0.34 0.40 0.50 0.60 0.80 0.98 1.24 1.44 1.65 1.76 1.75 1.77 1.66 1.52 1.52 1.46 1.36 1.19 1.06 0.93 0.78 0.61 0.53 0.52
1.06 0.74 0.55 0.48 0.46 0.42 0.29 0.28 0.29 0.32 0.39 0.42 0.48 0.48 0.37 0.33 0.29 0.29 0.33 0.32 0.32 0.36 0.45 0.51 0.60 0.70 0.97 1.24 1.53 1.68 1.78 1.83 1.84 1.79 1.91 1.82 1.64 1.37 1.10 0.92 0.85 0.77 0.70 0.65
1.00 0.61 0.57 0.56 0.42 0.34 0.27 0.19 0.26 0.32 0.47 0.50 0.47 0.53 0.28 0.25 0.29 0.30 0.34 0.34 0.31 0.35 0.43 0.49 0.55 0.61 0.77 1.02 1.26 1.44 1.68 1.85 1.93 2.01 1.97 1.85 1.62 1.35 1.09 1.03 1.11 1.07 0.93 0.81
0.95 0.62 0.59 0.60 0.40 0.30 0.27 0.18 0.25 0.34 0.47 0.53 0.37 0.42 0.28 0.22 0.30 0.35 0.37 0.37 0.34 0.33 0.38 0.42 0.50 0.57 0.66 0.86 1.06 1.19 1.39 1.67 1.76 1.74 1.75 1.81 1.68 1.47 1.32 1.23 1.15 1.09 0.97 0.87
0.77 0.60 0.62 0.56 0.40 0.31 0.28 0.34 0.37 0.42 0.62 0.76 0.45 0.45 0.36 0.29 0.33 0.32 0.32 0.31 0.34 0.37 0.41 0.44 0.49 0.52 0.56 0.68 0.87 1.05 1.12 1.30 1.45 1.45 1.52 1.59 1.51 1.45 1.34 1.18 1.08 1.02 0.93 0.83
1.06 0.75 0.55 0.50 0.54 0.41 0.39 0.63 0.89 0.87 0.80 0.57 0.34 0.40 0.38 0.31 0.36 0.37 0.34 0.32 0.36 0.42 0.49 0.52 0.50 0.49 0.49 0.55 0.62 0.79 0.94 1.03 1.17 1.27 1.32 1.34 1.36 1.32 1.26 1.18 1.08 1.01 0.92 0.80
1.02 0.97 0.55 0.44 0.50 0.43 0.35 0.47 0.65 0.64 0.48 0.31 0.23 0.33 0.35 0.34 0.35 0.33 0.33 0.34 0.38 0.48 0.53 0.52 0.51 0.57 0.57 0.55 0.52 0.60 0.70 0.77 0.89 1.04 1.09 1.10 1.13 1.09 1.00 0.96 0.91 0.85 0.79 0.76
0.57 0.65 0.38 0.27 0.27 0.36 0.41 0.36 0.29 0.58 0.52 0.37 0.27 0.25 0.26 0.27 0.29 0.32 0.33 0.31 0.32 0.41 0.49 0.52 0.53 0.52 0.51 0.46 0.46 0.50 0.57 0.61 0.62 0.72 0.80 0.82 0.84 0.84 0.81 0.76 0.72 0.68 0.65 0.65
0.27 0.44 0.39 0.31 0.33 0.39 0.36 0.30 0.42 0.88 0.83 0.51 0.27 0.23 0.32 0.31 0.31 0.30 0.29 0.28 0.29 0.30 0.35 0.40 0.40 0.38 0.34 0.33 0.37 0.43 0.47 0.52 0.51 0.53 0.58 0.63 0.62 0.61 0.59 0.58 0.55 0.50 0.49 0.50
0.17 0.29 0.38 0.43 0.39 0.34 0.33 0.37 0.47 0.63 0.59 0.59 0.33 0.32 0.35 0.31 0.32 0.30 0.28 0.28 0.27 0.25 0.24 0.27 0.27 0.24 0.21 0.22 0.25 0.33 0.41 0.45 0.41 0.45 0.51 0.52 0.52 0.54 0.52 0.47 0.44 0.44 0.42 0.41
0.14 0.24 0.36 0.35 0.21 0.19 0.24 0.25 0.36 0.70 0.56 0.44 0.37 0.34 0.28 0.25 0.26 0.25 0.25 0.26 0.24 0.22 0.21 0.18 0.16 0.14 0.12 0.13 0.16 0.21 0.28 0.33 0.32 0.34 0.42 0.40 0.39 0.44 0.48 0.45 0.40 0.39 0.37 0.33
0.17 0.34 0.55 0.48 0.37 0.30 0.29 0.25 0.41 0.70 0.80 0.58 0.46 0.33 0.23 0.21 0.18 0.18 0.19 0.19 0.17 0.15 0.12 0.10 0.10 0.11 0.10 0.10 0.13 0.17 0.22 0.23 0.26 0.28 0.30 0.29 0.29 0.31 0.35 0.38 0.38 0.36 0.36 0.32
0.31 0.39 0.58 0.65 0.56 0.49 0.40 0.30 0.47 0.92 1.04 0.50 0.29 0.25 0.19 0.19 0.21 0.21 0.16 0.12 0.11 0.09 0.07 0.06 0.07 0.08 0.08 0.08 0.12 0.15 0.15 0.15 0.16 0.17 0.20 0.22 0.23 0.24 0.27 0.28 0.29 0.29 0.30 0.30
0.40 0.64 0.66 0.54 0.45 0.51 0.47 0.36 0.46 0.69 0.56 0.41 0.23 0.17 0.18 0.19 0.22 0.23 0.18 0.12 0.08 0.07 0.06 0.04 0.05 0.07 0.07 0.07 0.09 0.11 0.13 0.12 0.14 0.17 0.17 0.18 0.19 0.20 0.21 0.21 0.20 0.18 0.18 0.19
0.41 0.67 0.74 0.60 0.34 0.35 0.35 0.26 0.33 0.41 0.34 0.28 0.18 0.17 0.14 0.17 0.23 0.25 0.18 0.12 0.07 0.06 0.04 0.03 0.03 0.05 0.06 0.06 0.07 0.09 0.12 0.13 0.15 0.17 0.16 0.16 0.17 0.17 0.16 0.16 0.15 0.14 0.14 0.15
0.36 0.55 0.79 0.63 0.34 0.34 0.32 0.21 0.26 0.30 0.24 0.21 0.21 0.16 0.11 0.16 0.23 0.27 0.20 0.12 0.07 0.05 0.04 0.04 0.04 0.03 0.04 0.04 0.08 0.13 0.16 0.15 0.17 0.17 0.15 0.15 0.16 0.18 0.17 0.17 0.20 0.25 0.28 0.29
0.19 0.37 0.62 0.56 0.46 0.49 0.29 0.17 0.18 0.20 0.17 0.14 0.13 0.08 0.09 0.14 0.16 0.17 0.17 0.14 0.09 0.05 0.03 0.03 0.02 0.03 0.03 0.04 0.08 0.15 0.21 0.24 0.27 0.29 0.25 0.21 0.22 0.27 0.32 0.36 0.41 0.48 0.56 0.60
0.07 0.25 0.46 0.39 0.33 0.22 0.12 0.10 0.12 0.15 0.13 0.07 0.07 0.05 0.05 0.06 0.13 0.15 0.13 0.14 0.11 0.06 0.04 0.03 0.03 0.03 0.04 0.05 0.08 0.13 0.22 0.28 0.33 0.37 0.39 0.39 0.41 0.48 0.53 0.61 0.67 0.69 0.76 0.76
0.04 0.13 0.32 0.27 0.20 0.08 0.05 0.03 0.04 0.08 0.11 0.04 0.03 0.03 0.03 0.03 0.08 0.12 0.15 0.18 0.18 0.14 0.08 0.05 0.05 0.06 0.08 0.10 0.14 0.21 0.29 0.38 0.44 0.49 0.54 0.56 0.57 0.60 0.62 0.63 0.63 0.62 0.62 0.60
0.08 0.14 0.22 0.20 0.15 0.02 0.01 0.01 0.01 0.05 0.08 0.03 0.04 0.04 0.03 0.04 0.04 0.05 0.09 0.15 0.17 0.19 0.18 0.17 0.16 0.18 0.20 0.22 0.29 0.38 0.45 0.53 0.58 0.59 0.63 0.64 0.61 0.58 0.54 0.47 0.41 0.37 0.34 0.30
0.03 0.06 0.07 0.08 0.11 0.04 0.02 0.01 0.02 0.02 0.01 0.01 0.02 0.03 0.04 0.03 0.03 0.03 0.05 0.09 0.11 0.15 0.19 0.23 0.27 0.27 0.28 0.33 0.40 0.47 0.53 0.55 0.52 0.46 0.43 0.39 0.34 0.30 0.27 0.23 0.21 0.19 0.17 0.16
0.03 0.03 0.03 0.04 0.05 0.03 0.02 0.02 0.01 0.02 0.02 0.02 0.02 0.03 0.03 0.04 0.04 0.04 0.04 0.04 0.05 0.06 0.08 0.12 0.17 0.20 0.20 0.22 0.24 0.26 0.25 0.23 0.20 0.16 0.14 0.13 0.12 0.11 0.11 0.11 0.10 0.10 0.10 0.09
0.05 0.03 0.03 0.04 0.03 0.03 0.02 0.01 0.02 0.02 0.02 0.03 0.02 0.02 0.02 0.03 0.04 0.04 0.04 0.05 0.05 0.06 0.05 0.05 0.06 0.06 0.06 0.06 0.06 0.06 0.06 0.06 0.06 0.06 0.06 0.07 0.07 0.07 0.07 0.07 0.07 0.07 0.07 0.08
0.08 0.05 0.06 0.06 0.05 0.03 0.03 0.02 0.02 0.02 0.02 0.03 0.03 0.03 0.03 0.03 0.03 0.04 0.04 0.04 0.05 0.05 0.06 0.06 0.07 0.07 0.07 0.07 0.06 0.06 0.06 0.06 0.06 0.06 0.07 0.08 0.09 0.10 0.10 0.11 0.11 0.12 0.12 0.12
0.05 0.06 0.07 0.07 0.04 0.03 0.03 0.02 0.02 0.02 0.02 0.02 0.02 0.03 0.03 0.03 0.04 0.04 0.04 0.04 0.04 0.04 0.05 0.06 0.07 0.09 0.09 0.08 0.08 0.08 0.08 0.08 0.08 0.09 0.09 0.10 0.11 0.12 0.12 0.13 0.13 0.15 0.15 0.16